Home   Weather   Tunis   Past weeks

Flag for Tunisia Past Weather in Tunis, Tunisia — Yesterday and Last 2 Weeks

Now
66 °F

Passing clouds.


Feels Like: 66 °F
Forecast: 56 / 75 °F
Wind: 3 mph from Southeast

Location: Tunis-Carthage

Current Time: Feb 23, 2017 at 3:01:04 pm

Latest Report: Feb 23, 2017 at 2:00 pm


Visibility: N/A

Pressure: 30.07 "Hg

Humidity: 52%

Dew Point: 48 °F

Location of TunisLocation

Past Weather in Tunis — Graph

°F

Tunis Temperature Yesterday

Maximum temperature yesterday: 66 °F (at 3:00 pm)
Minimum temperature yesterday: 41 °F (at 1:00 am)
Average temperature yesterday: 53 °F

High & Low Weather Summary for the Past Weeks

 TemperatureHumidityPressure
High68 °F (Feb 23, 1:00 pm)100% (Feb 10, 12:00 am)30.51 "Hg (Feb 10, 12:00 am)
Low41 °F (Feb 20, 4:30 am)49% (Feb 12, 2:00 pm)29.71 "Hg (Feb 9, 4:30 am)
Average54 °F79%30.17 "Hg
* Reported Feb 8 2:00 pm — Feb 23 2:00 pm, Tunis, Weather by CustomWeather, © 2017

Note: Actual official high and low records may vary slightly from our data, if they occured in-between our weather recording intervals... More about our weather records

Advertising

Tunis Weather History for the Previous 24 Hours

Scroll right to see more
 ConditionsComfort  
Time TempWeatherWind HumidityBarometerVisibility
2:00 pm
Thu, Feb 23
66 °FPassing clouds.3 mph52%30.07 "HgN/A
1:30 pm68 °FPassing clouds.5 mph56%30.09 "HgN/A
1:00 pm68 °FPassing clouds.1 mph56%30.09 "HgN/A
12:30 pm66 °FPassing clouds.3 mph60%30.12 "HgN/A
12:00 pm64 °FPassing clouds.1 mph60%30.12 "HgN/A
11:30 am63 °FPassing clouds.3 mph59%30.15 "HgN/A
10:30 am59 °FPassing clouds.3 mph77%30.15 "Hg4 mi
10:00 am57 °FPassing clouds.5 mph77%30.15 "Hg4 mi
9:30 am55 °FPassing clouds.2 mph88%30.12 "Hg4 mi
9:00 am54 °FPassing clouds.No wind88%30.15 "Hg4 mi
8:30 am52 °FPassing clouds.3 mph88%30.15 "Hg4 mi
8:00 am50 °FPassing clouds.3 mph94%30.12 "Hg4 mi
7:30 am48 °FPassing clouds.2 mph94%30.12 "Hg4 mi
7:00 am48 °FFog.3 mph94%30.12 "Hg3 mi
6:30 am48 °FPassing clouds.5 mph94%30.12 "Hg4 mi
6:00 am48 °FPassing clouds.3 mph94%30.12 "Hg4 mi
5:30 am46 °FPassing clouds.3 mph100%30.12 "Hg4 mi
5:00 am48 °FPassing clouds.3 mph94%30.12 "Hg4 mi
4:30 am50 °FPassing clouds.3 mph94%30.12 "Hg4 mi
4:00 am48 °FPassing clouds.2 mph94%30.12 "Hg4 mi
3:30 am48 °FPassing clouds.3 mph94%30.12 "Hg4 mi
3:00 am48 °FPassing clouds.3 mph100%30.15 "Hg4 mi
2:30 am48 °FPassing clouds.3 mph94%30.15 "Hg4 mi
2:00 am48 °FPassing clouds.2 mph94%30.15 "Hg4 mi
1:30 am50 °FPassing clouds.3 mph94%30.15 "Hg4 mi
1:00 am50 °FPassing clouds.2 mph94%30.15 "Hg4 mi
12:30 am50 °FPassing clouds.3 mph94%30.15 "Hg4 mi
12:00 am48 °FPassing clouds.3 mph100%30.18 "Hg4 mi
11:30 pm
Wed, Feb 22
48 °FPassing clouds.2 mph94%30.15 "Hg4 mi
11:00 pm50 °FPassing clouds.No wind94%30.18 "Hg4 mi
10:30 pm52 °FPassing clouds.1 mph94%30.18 "Hg5 mi
10:00 pm52 °FPassing clouds.No wind88%30.18 "Hg5 mi
9:30 pm52 °FPassing clouds.1 mph88%30.18 "Hg5 mi
9:00 pm52 °FPassing clouds.1 mph94%30.18 "Hg5 mi
8:30 pm52 °FPassing clouds.2 mph88%30.18 "HgN/A
8:00 pm52 °FPassing clouds.2 mph88%30.18 "HgN/A
7:30 pm52 °FPassing clouds.2 mph82%30.18 "HgN/A
7:00 pm54 °FPassing clouds.3 mph82%30.18 "HgN/A
6:30 pm55 °FPassing clouds.3 mph77%30.15 "HgN/A
6:00 pm59 °FPassing clouds.5 mph72%30.15 "HgN/A
5:30 pm61 °FPassing clouds.3 mph63%30.15 "HgN/A
5:00 pm63 °FPassing clouds.2 mph64%30.15 "HgN/A
4:00 pm66 °FPassing clouds.2 mph52%30.15 "HgN/A
3:30 pm66 °FPassing clouds.3 mph56%30.15 "HgN/A
3:00 pm66 °FPassing clouds.2 mph56%30.15 "HgN/A
Weather by CustomWeather, © 2017

See weather overviewHow to use our weather pages